Location: Mat�lon
(46.2791°N, 7.1028°E)
Time: 11:13:08
(UTC+00:00)

Tiangong - Visible Passes

Search period start: 28 September 2021 00:00
Search period end: 08 October 2021 00:00
Orbit: 382 x 385 km, 41.5° (Epoch: 28 September)

Date Brightness Start Highest point End Pass type
(mag) Time Alt. Az. Time Alt. Az. Time Alt. Az.
28 Sep 3.5 03:38:23 14° SSE 03:38:47 14° SSE 03:40:33 10° ESE visible
29 Sep 2.7 04:13:37 17° SSW 04:15:15 25° SSE 04:17:56 10° ESE visible
30 Sep 3.6 03:16:35 17° SE 03:16:35 17° SE 03:17:51 10° ESE visible
30 Sep 2.2 04:48:56 10° WSW 04:51:50 33° S 04:54:44 10° ESE visible
01 Oct 2.2 03:51:43 30° S 03:51:59 31° S 03:54:50 10° ESE visible
02 Oct 4.3 02:54:39 11° ESE 02:54:39 11° ESE 02:54:51 10° ESE visible
02 Oct 2.2 04:26:51 19° WSW 04:28:36 33° S 04:31:29 10° ESE visible
03 Oct 2.9 03:29:47 26° SE 03:29:47 26° SE 03:31:37 10° ESE visible
04 Oct 2.2 04:04:56 29° SSW 04:05:17 30° S 04:08:06 10° SE visible
05 Oct 4.1 03:07:55 13° ESE 03:07:55 13° ESE 03:08:18 10° ESE visible
05 Oct 2.9 04:40:08 13° WSW 04:41:46 18° SSW 04:44:03 10° SSE visible
06 Oct 3.2 03:43:11 19° SSE 03:43:11 19° SSE 03:44:34 10° SE visible
07 Oct 3.3 04:18:31 13° SSW 04:18:31 13° SSW 04:19:53 10° S visible
